Time,TemperatureF,DewpointF,PressureIn,WindDirection,WindDirectionDegrees,WindSpeedMPH,WindSpeedGustMPH,Humidity,HourlyPrecipIn,Conditions,Clouds,dailyrainin,SoftwareType,DateUTC
2013-07-30 00:46:00,68.0,-99.9,-100.00,North,-999,-999.0,-999.0,-999,0.00,,,0.57,,2013-07-30 05:46:00,
2013-07-30 00:53:00,68.0,-99.9,-100.00,North,-999,-999.0,-999.0,-999,0.00,,,0.57,,2013-07-30 05:53:00,
2013-07-30 01:00:00,68.0,-99.9,-100.00,North,-999,-999.0,-999.0,-999,0.00,,,0.56,,2013-07-30 06:00:00,
2013-07-30 01:43:00,68.0,-99.9,-100.00,North,-999,-999.0,-999.0,-999,0.00,,,0.56,,2013-07-30 06:43:00,
2013-07-30 01:53:00,68.0,-99.9,-100.00,North,-999,-999.0,-999.0,-999,0.00,,,0.56,,2013-07-30 06:53:00,
2013-07-30 02:00:00,68.0,-99.9,-100.00,North,-999,-999.0,-999.0,-999,0.00,,,0.52,,2013-07-30 07:00:00,
2013-07-30 02:43:00,68.0,-99.9,-100.00,North,-999,-999.0,-999.0,-999,0.00,,,0.52,,2013-07-30 07:43:00,
2013-07-30 02:53:00,68.0,-99.9,-100.00,North,-999,-999.0,-999.0,-999,0.00,,,0.52,,2013-07-30 07:53:00,
2013-07-30 03:00:00,68.0,-99.9,-100.00,North,-999,-999.0,-999.0,-999,0.00,,,0.52,,2013-07-30 08:00:00,
2013-07-30 03:43:00,68.0,-99.9,-100.00,North,-999,-999.0,-999.0,-999,0.00,,,0.52,,2013-07-30 08:43:00,
2013-07-30 03:53:00,68.0,-99.9,-100.00,North,-999,-999.0,-999.0,-999,0.00,,,0.52,,2013-07-30 08:53:00,
2013-07-30 04:00:00,68.0,-99.9,-100.00,North,-999,-999.0,-999.0,-999,0.00,,,0.51,,2013-07-30 09:00:00,
2013-07-30 04:43:00,68.0,-99.9,-100.00,North,-999,-999.0,-999.0,-999,0.00,,,0.51,,2013-07-30 09:43:00,
2013-07-30 04:53:00,68.0,-99.9,-100.00,North,-999,-999.0,-999.0,-999,0.00,,,0.51,,2013-07-30 09:53:00,
2013-07-30 05:00:00,68.0,-99.9,-100.00,North,-999,-999.0,-999.0,-999,0.00,,,0.49,,2013-07-30 10:00:00,
2013-07-30 05:44:00,68.0,-99.9,-100.00,North,-999,-999.0,-999.0,-999,0.00,,,0.49,,2013-07-30 10:44:00,
2013-07-30 05:52:00,68.0,-99.9,-100.00,North,-999,-999.0,-999.0,-999,0.00,,,0.49,,2013-07-30 10:52:00,
2013-07-30 06:43:00,68.0,-99.9,-100.00,North,-999,-999.0,-999.0,-999,0.00,,,0.46,,2013-07-30 11:43:00,
2013-07-30 06:53:00,68.0,-99.9,-100.00,North,-999,-999.0,-999.0,-999,0.00,,,0.46,,2013-07-30 11:53:00,
2013-07-30 07:00:00,68.0,-99.9,-100.00,North,-999,-999.0,-999.0,-999,0.00,,,0.45,,2013-07-30 12:00:00,
2013-07-30 07:42:00,68.0,-99.9,-100.00,North,-999,-999.0,-999.0,-999,0.00,,,0.45,,2013-07-30 12:42:00,
2013-07-30 07:53:00,68.0,-99.9,-100.00,North,-999,-999.0,-999.0,-999,0.00,,,0.45,,2013-07-30 12:53:00,
2013-07-30 08:00:00,68.0,-99.9,-100.00,North,-999,-999.0,-999.0,-999,0.00,,,0.45,,2013-07-30 13:00:00,
2013-07-30 08:43:00,68.0,-99.9,-100.00,North,-999,-999.0,-999.0,-999,0.00,,,0.45,,2013-07-30 13:43:00,
2013-07-30 08:53:00,68.0,-99.9,-100.00,North,-999,-999.0,-999.0,-999,0.00,,,0.45,,2013-07-30 13:53:00,
2013-07-30 09:00:00,68.0,-99.9,-100.00,North,-999,-999.0,-999.0,-999,0.00,,,0.45,,2013-07-30 14:00:00,
2013-07-30 09:43:00,68.0,-99.9,-100.00,North,-999,-999.0,-999.0,-999,0.00,,,0.45,,2013-07-30 14:43:00,
2013-07-30 09:53:00,68.0,-99.9,-100.00,North,-999,-999.0,-999.0,-999,0.00,,,0.45,,2013-07-30 14:53:00,
2013-07-30 10:00:00,69.0,-99.9,-100.00,North,-999,-999.0,-999.0,-999,0.00,,,0.45,,2013-07-30 15:00:00,
2013-07-30 10:44:00,69.0,-99.9,-100.00,North,-999,-999.0,-999.0,-999,0.00,,,0.45,,2013-07-30 15:44:00,
2013-07-30 10:53:00,69.0,-99.9,-100.00,North,-999,-999.0,-999.0,-999,0.00,,,0.45,,2013-07-30 15:53:00,
2013-07-30 12:00:00,74.0,-99.9,-100.00,North,-999,-999.0,-999.0,-999,-99.99,,,0.31,,2013-07-30 17:00:00,
2013-07-30 12:43:00,74.0,-99.9,-100.00,North,-999,-999.0,-999.0,-999,-99.99,,,0.31,,2013-07-30 17:43:00,
2013-07-30 12:54:00,74.0,-99.9,-100.00,North,-999,-999.0,-999.0,-999,-99.99,,,0.31,,2013-07-30 17:54:00,
2013-07-30 13:00:00,79.0,-99.9,-100.00,North,-999,-999.0,-999.0,-999,0.00,,,0.04,,2013-07-30 18:00:00,
2013-07-30 13:43:00,79.0,-99.9,-100.00,North,-999,-999.0,-999.0,-999,0.00,,,0.04,,2013-07-30 18:43:00,
2013-07-30 13:52:00,79.0,-99.9,-100.00,North,-999,-999.0,-999.0,-999,0.00,,,0.04,,2013-07-30 18:52:00,
2013-07-30 14:00:00,78.0,-99.9,-100.00,North,-999,-999.0,-999.0,-999,0.00,,,0.03,,2013-07-30 19:00:00,
2013-07-30 14:44:00,78.0,-99.9,-100.00,North,-999,-999.0,-999.0,-999,0.00,,,0.03,,2013-07-30 19:44:00,
2013-07-30 14:53:00,78.0,-99.9,-100.00,North,-999,-999.0,-999.0,-999,0.00,,,0.03,,2013-07-30 19:53:00,
2013-07-30 15:00:00,78.0,-99.9,-100.00,North,-999,-999.0,-999.0,-999,0.00,,,0.00,,2013-07-30 20:00:00,
2013-07-30 15:43:00,78.0,-99.9,-100.00,North,-999,-999.0,-999.0,-999,0.00,,,0.00,,2013-07-30 20:43:00,
2013-07-30 15:52:00,78.0,-99.9,-100.00,North,-999,-999.0,-999.0,-999,0.00,,,0.00,,2013-07-30 20:52:00,
2013-07-30 17:00:00,78.0,-99.9,-100.00,North,-999,-999.0,-999.0,-999,0.00,,,0.00,,2013-07-30 22:00:00,
2013-07-30 17:43:00,78.0,-99.9,-100.00,North,-999,-999.0,-999.0,-999,0.00,,,0.00,,2013-07-30 22:43:00,
2013-07-30 17:53:00,78.0,-99.9,-100.00,North,-999,-999.0,-999.0,-999,0.00,,,0.00,,2013-07-30 22:53:00,
2013-07-30 18:00:00,78.0,-99.9,-100.00,North,-999,-999.0,-999.0,-999,0.00,,,0.00,,2013-07-30 23:00:00,
2013-07-30 18:32:00,78.0,-99.9,-100.00,North,-999,-999.0,-999.0,-999,0.00,,,0.00,,2013-07-30 23:32:00,
2013-07-30 18:43:00,78.0,-99.9,-100.00,North,-999,-999.0,-999.0,-999,0.00,,,0.00,,2013-07-30 23:43:00,
2013-07-30 18:53:00,78.0,-99.9,-100.00,North,-999,-999.0,-999.0,-999,0.00,,,0.00,,2013-07-30 23:53:00,
2013-07-30 19:00:00,79.0,-99.9,-100.00,North,-999,-999.0,-999.0,-999,0.00,,,0.00,,2013-07-31 00:00:00,
2013-07-30 19:43:00,79.0,-99.9,-100.00,North,-999,-999.0,-999.0,-999,0.00,,,0.00,,2013-07-31 00:43:00,
2013-07-30 19:53:00,79.0,-99.9,-100.00,North,-999,-999.0,-999.0,-999,0.00,,,0.00,,2013-07-31 00:53:00,
2013-07-30 20:00:00,77.0,-99.9,-100.00,North,-999,-999.0,-999.0,-999,0.00,,,0.00,,2013-07-31 01:00:00,
2013-07-30 20:43:00,77.0,-99.9,-100.00,North,-999,-999.0,-999.0,-999,0.00,,,0.00,,2013-07-31 01:43:00,
2013-07-30 20:52:00,77.0,-99.9,-100.00,North,-999,-999.0,-999.0,-999,0.00,,,0.00,,2013-07-31 01:52:00,
2013-07-30 21:00:00,73.0,-99.9,-100.00,North,-999,-999.0,-999.0,-999,0.00,,,0.00,,2013-07-31 02:00:00,
2013-07-30 21:43:00,73.0,-99.9,-100.00,North,-999,-999.0,-999.0,-999,0.00,,,0.00,,2013-07-31 02:43:00,
2013-07-30 21:53:00,73.0,-99.9,-100.00,North,-999,-999.0,-999.0,-999,0.00,,,0.00,,2013-07-31 02:53:00,
2013-07-30 22:00:00,72.0,-99.9,-100.00,North,-999,-999.0,-999.0,-999,0.00,,,0.00,,2013-07-31 03:00:00,
2013-07-30 22:42:00,72.0,-99.9,-100.00,North,-999,-999.0,-999.0,-999,0.00,,,0.00,,2013-07-31 03:42:00,
2013-07-30 22:53:00,72.0,-99.9,-100.00,North,-999,-999.0,-999.0,-999,0.00,,,0.00,,2013-07-31 03:53:00,
2013-07-30 23:00:00,70.0,-99.9,-100.00,North,-999,-999.0,-999.0,-999,0.00,,,0.00,,2013-07-31 04:00:00,
2013-07-30 23:42:00,70.0,-99.9,-100.00,North,-999,-999.0,-999.0,-999,0.00,,,0.00,,2013-07-31 04:42:00,
2013-07-30 23:53:00,70.0,-99.9,-100.00,North,-999,-999.0,-999.0,-999,0.00,,,0.00,,2013-07-31 04:53:00,